KC4KQE Weather Reports


Display with metric or nautical units.
time (UTC)temp
F
wind
direction
speed
MPH
gust
MPH
rain 1hr
in
rain 24hr
in
rain mn
in
humidity
%
barometer
mb
20260508014417 90 110 7.0 12.0 0.00 0.00 0.00 6 1009.7
20260508013917 90 110 7.0 11.0 0.00 0.00 0.00 6 1009.7
20260508013417 90 110 9.0 15.0 0.00 0.00 0.00 6 1009.7
20260508012917 90 110 9.0 15.0 0.00 0.00 0.00 6 1009.6
20260508012418 91 110 7.0 15.0 0.00 0.00 0.00 6 1009.6
20260508011918 91 110 9.0 15.0 0.00 0.00 0.00 5 1009.6
20260508011417 91 110 8.0 13.0 0.00 0.00 0.00 5 1009.5
20260508010917 91 110 8.0 13.0 0.00 0.00 0.00 5 1009.5
20260508010417 92 110 7.0 9.0 0.00 0.00 0.00 5 1009.5
20260508005917 92 110 4.0 10.0 0.00 0.00 0.00 5 1009.4
20260508005417 92 110 4.0 11.0 0.00 0.00 0.00 5 1009.4
20260508004917 92 110 10.0 11.0 0.00 0.00 0.00 5 1009.4
20260508004418 92 110 5.0 13.0 0.00 0.00 0.00 5 1009.4
20260508003917 92 110 12.0 15.0 0.00 0.00 0.00 5 1009.4
20260508003417 92 110 3.0 10.0 0.00 0.00 0.00 5 1009.4
20260508002917 92 110 9.0 9.0 0.00 0.00 0.00 5 1009.4
20260508002417 92 110 8.0 11.0 0.00 0.00 0.00 5 1009.5
20260508001917 93 110 9.0 14.0 0.00 0.00 0.00 5 1009.4
20260508001417 93 110 3.0 10.0 0.00 0.00 0.00 5 1009.4
20260508000917 93 110 7.0 11.0 0.00 0.00 0.00 5 1009.4
20260508000416 93 110 3.0 10.0 0.00 0.00 0.00 5 1009.5
20260507235918 92 110 5.0 16.0 0.00 0.00 0.00 6 1009.5
20260507235416 92 110 7.0 17.0 0.00 0.00 0.00 6 1009.5
20260507234918 93 110 4.0 18.0 0.00 0.00 0.00 5 1009.5
20260507234416 93 110 5.0 13.0 0.00 0.00 0.00 6 1009.5
20260507233917 93 110 4.0 13.0 0.00 0.00 0.00 6 1009.6
20260507233417 93 110 10.0 15.0 0.00 0.00 0.00 6 1009.6
20260507232917 93 110 9.0 18.0 0.00 0.00 0.00 6 1009.6
20260507232418 93 110 3.0 10.0 0.00 0.00 0.00 6 1009.7
20260507231917 92 110 5.0 16.0 0.00 0.00 0.00 6 1009.7
20260507231416 92 110 5.0 12.0 0.00 0.00 0.00 6 1009.6
20260507230917 92 110 9.0 13.0 0.00 0.00 0.00 6 1009.7
20260507230417 93 110 10.0 15.0 0.00 0.00 0.00 6 1009.8
20260507225916 94 110 13.0 14.0 0.00 0.00 0.00 6 1009.8
20260507225416 93 110 7.0 14.0 0.00 0.00 0.00 6 1009.8
20260507224916 93 110 2.0 4.0 0.00 0.00 0.00 6 1009.9
20260507224417 93 110 1.0 14.0 0.00 0.00 0.00 6 1010.0
20260507223916 93 110 12.0 16.0 0.00 0.00 0.00 6 1010.0
20260507223418 93 110 13.0 13.0 0.00 0.00 0.00 6 1009.9
20260507222917 93 110 8.0 12.0 0.00 0.00 0.00 6 1010.0
20260507222416 93 110 5.0 9.0 0.00 0.00 0.00 6 1010.0
20260507221916 92 110 4.0 11.0 0.00 0.00 0.00 7 1010.0
20260507221417 92 110 0.0 11.0 0.00 0.00 0.00 7 1010.1
20260507220917 93 110 1.0 13.0 0.00 0.00 0.00 7 1010.3
20260507220417 93 110 10.0 19.0 0.00 0.00 0.00 7 1010.3
20260507215916 92 110 9.0 13.0 0.00 0.00 0.00 7 1010.4
20260507215417 92 110 4.0 13.0 0.00 0.00 0.00 7 1010.5
20260507214918 93 110 3.0 15.0 0.00 0.00 0.00 7 1010.6
20260507214416 93 110 4.0 13.0 0.00 0.00 0.00 7 1010.6
20260507213917 94 110 2.0 12.0 0.00 0.00 0.00 6 1010.7
20260507213416 93 110 7.0 12.0 0.00 0.00 0.00 6 1010.7
20260507212916 91 110 5.0 7.0 0.00 0.00 0.00 6 1010.8
20260507212417 93 110 3.0 11.0 0.00 0.00 0.00 5 1010.9
20260507211916 93 110 4.0 10.0 0.00 0.00 0.00 5 1010.9
20260507211416 92 110 4.0 7.0 0.00 0.00 0.00 6 1011.0
20260507210916 94 110 4.0 9.0 0.00 0.00 0.00 5 1011.1
20260507210417 93 110 2.0 8.0 0.00 0.00 0.00 5 1011.1
20260507205916 92 110 2.0 4.0 0.00 0.00 0.00 5 1011.2
20260507205416 93 110 2.0 5.0 0.00 0.00 0.00 6 1011.3
20260507204917 92 110 3.0 8.0 0.00 0.00 0.00 5 1011.3
20260507204417 91 110 5.0 9.0 0.00 0.00 0.00 6 1011.4
20260507203916 92 110 5.0 8.0 0.00 0.00 0.00 5 1011.6
20260507203417 93 110 1.0 8.0 0.00 0.00 0.00 6 1011.6
20260507202917 94 110 5.0 11.0 0.00 0.00 0.00 6 1011.6
20260507202416 93 110 8.0 8.0 0.00 0.00 0.00 7 1011.7
20260507201916 92 110 1.0 8.0 0.00 0.00 0.00 6 1011.7
20260507201417 91 110 4.0 8.0 0.00 0.00 0.00 7 1011.8
20260507200917 90 110 2.0 9.0 0.00 0.00 0.00 6 1011.8
20260507200417 93 110 9.0 10.0 0.00 0.00 0.00 6 1012.0
20260507195917 93 110 4.0 10.0 0.00 0.00 0.00 6 1012.0
20260507195417 92 110 3.0 10.0 0.00 0.00 0.00 6 1012.0
20260507194917 93 110 5.0 11.0 0.00 0.00 0.00 6 1012.1
20260507194416 92 110 5.0 16.0 0.00 0.00 0.00 6 1012.2
20260507193917 91 110 4.0 8.0 0.00 0.00 0.00 6 1012.2
20260507193420 92 110 8.0 9.0 0.00 0.00 0.00 5 1012.3
20260507192917 92 110 4.0 10.0 0.00 0.00 0.00 6 1012.4
20260507192417 92 110 7.0 12.0 0.00 0.00 0.00 7 1012.5
20260507191916 91 110 4.0 5.0 0.00 0.00 0.00 7 1012.5
20260507191416 89 110 4.0 9.0 0.00 0.00 0.00 7 1012.5
20260507190917 88 110 2.0 5.0 0.00 0.00 0.00 8 1012.6
20260507190417 89 110 3.0 8.0 0.00 0.00 0.00 8 1012.8
20260507185916 89 110 1.0 10.0 0.00 0.00 0.00 8 1012.9
20260507185417 89 110 8.0 12.0 0.00 0.00 0.00 9 1012.9
20260507184918 89 110 4.0 10.0 0.00 0.00 0.00 9 1013.0
20260507184416 89 110 2.0 9.0 0.00 0.00 0.00 10 1013.0
20260507183916 88 110 3.0 7.0 0.00 0.00 0.00 11 1013.1
20260507183417 88 110 1.0 8.0 0.00 0.00 0.00 11 1013.2
20260507182916 87 110 2.0 8.0 0.00 0.00 0.00 10 1013.2
20260507182417 87 110 1.0 8.0 0.00 0.00 0.00 10 1013.3
20260507181917 87 110 7.0 7.0 0.00 0.00 0.00 11 1013.4
20260507181417 86 110 3.0 7.0 0.00 0.00 0.00 11 1013.4
20260507180916 86 110 2.0 8.0 0.00 0.00 0.00 12 1013.5
20260507180416 85 110 1.0 7.0 0.00 0.00 0.00 12 1013.6
20260507175916 85 110 5.0 8.0 0.00 0.00 0.00 12 1013.5
20260507175417 85 110 2.0 8.0 0.00 0.00 0.00 13 1013.6
20260507174916 84 110 5.0 8.0 0.00 0.00 0.00 13 1013.6
20260507174416 84 110 7.0 9.0 0.00 0.00 0.00 14 1013.7
20260507173917 83 110 4.0 5.0 0.00 0.00 0.00 14 1013.8
20260507173416 83 110 2.0 7.0 0.00 0.00 0.00 14 1013.8
20260507172917 83 110 4.0 5.0 0.00 0.00 0.00 15 1013.8
20260507172417 83 110 3.0 9.0 0.00 0.00 0.00 15 1013.9
20260507171917 82 110 3.0 9.0 0.00 0.00 0.00 15 1013.9
20260507171418 82 110 3.0 7.0 0.00 0.00 0.00 16 1014.0
20260507170917 81 110 2.0 5.0 0.00 0.00 0.00 17 1014.0
20260507170417 81 110 3.0 9.0 0.00 0.00 0.00 17 1014.1
20260507165916 81 110 5.0 7.0 0.00 0.00 0.00 17 1014.1
20260507165417 80 110 3.0 7.0 0.00 0.00 0.00 18 1014.1
20260507164917 80 110 3.0 8.0 0.00 0.00 0.00 19 1014.2
20260507164416 80 110 2.0 8.0 0.00 0.00 0.00 20 1014.2
20260507163917 80 110 3.0 9.0 0.00 0.00 0.00 19 1014.3
20260507163416 79 110 2.0 8.0 0.00 0.00 0.00 20 1014.2
20260507162916 79 110 5.0 5.0 0.00 0.00 0.00 21 1014.3
20260507162417 79 110 4.0 5.0 0.00 0.00 0.00 20 1014.3
20260507161916 78 110 3.0 5.0 0.00 0.00 0.00 20 1014.3
20260507161417 78 110 4.0 8.0 0.00 0.00 0.00 21 1014.3
20260507160917 78 110 4.0 7.0 0.00 0.00 0.00 22 1014.4
20260507160416 77 110 5.0 5.0 0.00 0.00 0.00 22 1014.5
20260507155917 77 110 1.0 4.0 0.00 0.00 0.00 22 1014.5
20260507155417 77 110 3.0 8.0 0.00 0.00 0.00 22 1014.5
20260507154916 76 110 2.0 5.0 0.00 0.00 0.00 23 1014.5
20260507154416 76 110 1.0 4.0 0.00 0.00 0.00 23 1014.5
20260507153916 75 110 1.0 3.0 0.00 0.00 0.00 24 1014.5
20260507153416 75 110 1.0 7.0 0.00 0.00 0.00 25 1014.5
20260507152916 74 110 2.0 4.0 0.00 0.00 0.00 25 1014.6
20260507152417 74 110 2.0 5.0 0.00 0.00 0.00 27 1014.5
20260507151917 73 110 3.0 5.0 0.00 0.00 0.00 27 1014.5
20260507151416 73 110 4.0 7.0 0.00 0.00 0.00 27 1014.6
20260507150917 73 110 3.0 5.0 0.00 0.00 0.00 28 1014.7
20260507150416 72 110 0.0 4.0 0.00 0.00 0.00 29 1014.6
20260507145916 72 110 1.0 4.0 0.00 0.00 0.00 29 1014.5
20260507145416 72 110 2.0 4.0 0.00 0.00 0.00 29 1014.5
20260507144917 71 110 1.0 3.0 0.00 0.00 0.00 29 1014.5
20260507144416 71 110 1.0 2.0 0.00 0.00 0.00 29 1014.6
20260507143917 71 110 1.0 3.0 0.00 0.00 0.00 29 1014.6
20260507143417 70 110 1.0 3.0 0.00 0.00 0.00 29 1014.5
20260507142916 70 110 0.0 3.0 0.00 0.00 0.00 30 1014.5
20260507142417 70 110 1.0 1.0 0.00 0.00 0.00 31 1014.5
20260507141918 69 110 3.0 3.0 0.00 0.00 0.00 31 1014.6
20260507141416 69 110 0.0 7.0 0.00 0.00 0.00 31 1014.6
20260507140916 69 110 3.0 5.0 0.00 0.00 0.00 31 1014.5
20260507140416 69 110 2.0 5.0 0.00 0.00 0.00 31 1014.5
20260507135916 68 110 1.0 2.0 0.00 0.00 0.00 31 1014.5
20260507135416 67 110 0.0 1.0 0.00 0.00 0.00 34 1014.4
20260507134916 66 110 0.0 2.0 0.00 0.00 0.00 34 1014.2
20260507134416 66 110 0.0 2.0 0.00 0.00 0.00 34 1014.1
20260507133916 65 110 1.0 4.0 0.00 0.00 0.00 36 1014.1
20260507133417 64 110 2.0 3.0 0.00 0.00 0.00 37 1014.1
20260507132917 63 110 2.0 3.0 0.00 0.00 0.00 38 1014.2
20260507132416 62 110 0.0 1.0 0.00 0.00 0.00 39 1014.1
20260507131916 62 110 0.0 2.0 0.00 0.00 0.00 38 1014.0
20260507131418 63 110 0.0 2.0 0.00 0.00 0.00 36 1014.0
20260507130917 63 110 1.0 2.0 0.00 0.00 0.00 36 1014.0
20260507130417 63 110 0.0 4.0 0.00 0.00 0.00 37 1014.0
20260507125916 63 110 3.0 3.0 0.00 0.00 0.00 37 1014.0
20260507125416 63 110 0.0 5.0 0.00 0.00 0.00 37 1014.0
20260507124916 62 110 2.0 4.0 0.00 0.00 0.00 38 1013.9
20260507124416 62 110 0.0 2.0 0.00 0.00 0.00 38 1013.9
20260507123916 61 110 1.0 3.0 0.00 0.00 0.00 39 1013.9
20260507123418 61 110 1.0 2.0 0.00 0.00 0.00 39 1013.8
20260507122916 61 110 1.0 3.0 0.00 0.00 0.00 39 1013.7
20260507122417 62 110 0.0 2.0 0.00 0.00 0.00 38 1013.8
20260507121917 62 110 2.0 3.0 0.00 0.00 0.00 37 1013.7
20260507121417 63 110 0.0 0.0 0.00 0.00 0.00 35 1013.7
20260507120917 64 110 0.0 2.0 0.00 0.00 0.00 35 1013.7
20260507120417 65 110 2.0 3.0 0.00 0.00 0.00 33 1013.7
20260507115917 66 110 0.0 5.0 0.00 0.00 0.00 32 1013.7
20260507115416 66 110 4.0 5.0 0.00 0.00 0.00 32 1013.6
20260507114917 66 110 1.0 5.0 0.00 0.00 0.00 31 1013.7
20260507114417 66 110 4.0 7.0 0.00 0.00 0.00 32 1013.8
20260507113916 66 110 3.0 5.0 0.00 0.00 0.00 32 1013.8
20260507113416 66 110 0.0 7.0 0.00 0.00 0.00 32 1013.7
20260507112916 66 110 3.0 11.0 0.00 0.00 0.00 32 1013.7
20260507112417 66 110 5.0 9.0 0.00 0.00 0.00 32 1013.7
20260507111916 66 110 8.0 10.0 0.00 0.00 0.00 33 1013.7
20260507111416 66 110 3.0 5.0 0.00 0.00 0.00 32 1013.7
20260507110916 66 110 3.0 8.0 0.00 0.00 0.00 32 1013.7
20260507110417 66 110 3.0 7.0 0.00 0.00 0.00 32 1013.7
20260507105917 66 110 4.0 10.0 0.00 0.00 0.00 32 1013.7
20260507105416 66 110 5.0 9.0 0.00 0.00 0.00 33 1013.7
20260507104916 65 110 4.0 9.0 0.00 0.00 0.00 33 1013.7
20260507104418 65 110 3.0 4.0 0.00 0.00 0.00 33 1013.7
20260507103916 65 110 3.0 4.0 0.00 0.00 0.00 33 1013.7
20260507103416 65 110 3.0 5.0 0.00 0.00 0.00 33 1013.8
20260507102916 65 110 3.0 5.0 0.00 0.00 0.00 33 1013.9
20260507102417 65 110 3.0 0.0 0.00 0.00 0.00 33 1014.0
20260507101917 65 110 3.0 4.0 0.00 0.00 0.00 33 1014.0
20260507101417 65 110 4.0 7.0 0.00 0.00 0.00 33 1014.0
20260507100916 65 110 4.0 7.0 0.00 0.00 0.00 33 1014.1
20260507100417 65 110 2.0 7.0 0.00 0.00 0.00 32 1014.2
20260507095916 65 110 3.0 7.0 0.00 0.00 0.00 32 1014.3
20260507095417 66 110 4.0 9.0 0.00 0.00 0.00 32 1014.3
20260507094917 66 110 5.0 9.0 0.00 0.00 0.00 32 1014.4
20260507094418 65 110 8.0 9.0 0.00 0.00 0.00 32 1014.5
20260507093917 65 110 3.0 8.0 0.00 0.00 0.00 32 1014.4
20260507093416 65 110 4.0 8.0 0.00 0.00 0.00 32 1014.5
20260507092917 65 110 3.0 7.0 0.00 0.00 0.00 32 1014.5
20260507092416 65 110 3.0 9.0 0.00 0.00 0.00 32 1014.6
20260507091917 65 110 4.0 7.0 0.00 0.00 0.00 32 1014.6
20260507091416 65 110 5.0 7.0 0.00 0.00 0.00 32 1014.6
20260507090916 65 110 2.0 8.0 0.00 0.00 0.00 32 1014.6
20260507090416 64 110 5.0 7.0 0.00 0.00 0.00 32 1014.6
20260507085916 64 110 4.0 5.0 0.00 0.00 0.00 32 1014.6
20260507085417 64 110 3.0 5.0 0.00 0.00 0.00 32 1014.7
20260507084917 65 110 2.0 5.0 0.00 0.00 0.00 32 1014.7
20260507084416 65 110 4.0 5.0 0.00 0.00 0.00 32 1014.8
20260507083916 65 110 3.0 4.0 0.00 0.00 0.00 31 1014.8
20260507083416 65 110 4.0 5.0 0.00 0.00 0.00 31 1014.9
20260507082916 66 110 5.0 5.0 0.00 0.00 0.00 30 1014.9
20260507082416 66 110 4.0 5.0 0.00 0.00 0.00 30 1015.0
20260507081917 67 110 3.0 5.0 0.00 0.00 0.00 29 1015.0
20260507081416 68 110 4.0 7.0 0.00 0.00 0.00 28 1015.0
20260507080916 69 110 4.0 8.0 0.00 0.00 0.00 28 1015.0
20260507080416 69 110 3.0 7.0 0.00 0.00 0.00 28 1015.1
20260507075916 70 110 2.0 5.0 0.00 0.00 0.00 28 1015.1
20260507075416 70 110 3.0 5.0 0.00 0.00 0.00 27 1015.0
20260507074916 70 110 2.0 8.0 0.00 0.00 0.00 28 1015.1
20260507074417 70 110 4.0 5.0 0.00 0.00 0.00 28 1015.1
20260507073917 69 110 2.0 4.0 0.00 0.00 0.00 29 1015.1
20260507073416 67 110 2.0 4.0 0.00 0.00 0.00 30 1015.1
20260507072917 67 110 3.0 3.0 0.00 0.00 0.00 31 1015.1
20260507072416 67 110 1.0 3.0 0.00 0.00 0.00 30 1015.1
20260507071917 68 110 2.0 3.0 0.00 0.00 0.00 29 1015.1
20260507071418 69 110 2.0 3.0 0.00 0.00 0.00 28 1015.1
20260507070916 70 110 0.0 3.0 0.00 0.00 0.00 27 1015.0
20260507070418 70 110 1.0 3.0 0.00 0.00 0.00 27 1015.1
20260507065916 70 110 2.0 7.0 0.00 0.00 0.00 27 1015.1
20260507065417 70 110 2.0 7.0 0.00 0.00 0.00 27 1015.1
20260507064916 69 110 4.0 5.0 0.00 0.00 0.00 28 1015.0
20260507064416 70 110 3.0 5.0 0.00 0.00 0.00 28 1015.0
20260507063916 69 110 3.0 7.0 0.00 0.00 0.00 29 1015.0
20260507063416 69 110 1.0 2.0 0.00 0.00 0.00 29 1015.0
20260507062916 69 110 2.0 4.0 0.00 0.00 0.00 29 1015.0
20260507062416 69 110 2.0 4.0 0.00 0.00 0.00 29 1014.9
20260507061916 67 110 1.0 4.0 0.00 0.00 0.00 31 1014.8
20260507061417 67 110 4.0 4.0 0.00 0.00 0.00 32 1015.0
20260507060916 66 110 2.0 3.0 0.00 0.00 0.00 33 1015.0
20260507060416 66 110 0.0 2.0 0.00 0.00 0.00 33 1015.0
20260507055916 67 110 0.0 2.0 0.00 0.00 0.00 33 1015.0
20260507055418 67 110 0.0 0.0 0.00 0.00 0.00 32 1014.9
20260507054916 68 110 0.0 0.0 0.00 0.00 0.00 31 1015.0
20260507054416 68 110 0.0 0.0 0.00 0.00 0.00 31 1015.0
20260507053916 68 110 0.0 1.0 0.00 0.00 0.00 30 1015.0
20260507053416 68 110 1.0 1.0 0.00 0.00 0.00 30 1014.9
20260507052916 68 110 0.0 1.0 0.00 0.00 0.00 30 1014.9
20260507052417 68 110 0.0 2.0 0.00 0.00 0.00 31 1014.9
20260507051917 67 110 0.0 2.0 0.00 0.00 0.00 32 1015.0
20260507051417 67 110 1.0 1.0 0.00 0.00 0.00 32 1014.9
20260507050917 67 110 0.0 0.0 0.00 0.00 0.00 33 1015.0
20260507050416 68 110 0.0 0.0 0.00 0.00 0.00 32 1015.0
20260507045917 68 110 0.0 2.0 0.00 0.00 0.00 33 1014.9
20260507045416 68 110 1.0 2.0 0.00 0.00 0.00 32 1014.9
20260507044916 69 110 0.0 1.0 0.00 0.00 0.00 32 1014.9
20260507044417 69 110 1.0 1.0 0.00 0.00 0.00 31 1014.8
20260507043916 69 110 0.0 2.0 0.00 0.00 0.00 31 1014.8
20260507043418 69 110 1.0 2.0 0.00 0.00 0.00 31 1014.7
20260507042916 69 110 1.0 2.0 0.00 0.00 0.00 31 1014.7
20260507042416 69 110 2.0 2.0 0.00 0.00 0.00 31 1014.7
20260507041916 70 110 1.0 2.0 0.00 0.00 0.00 31 1014.6
20260507041417 70 110 1.0 2.0 0.00 0.00 0.00 31 1014.5
20260507040916 70 110 1.0 1.0 0.00 0.00 0.00 31 1014.5
20260507040416 70 110 0.0 1.0 0.00 0.00 0.00 31 1014.4
20260507035916 70 110 1.0 2.0 0.00 0.00 0.00 31 1014.3
20260507035416 70 110 1.0 1.0 0.00 0.00 0.00 30 1014.3
20260507034916 70 110 0.0 1.0 0.00 0.00 0.00 30 1014.2
20260507034416 70 110 1.0 1.0 0.00 0.00 0.00 30 1014.1
20260507033916 70 110 0.0 1.0 0.00 0.00 0.00 30 1014.1
20260507033416 71 110 0.0 1.0 0.00 0.00 0.00 30 1014.0
20260507032916 71 110 0.0 0.0 0.00 0.00 0.00 29 1014.0
20260507032416 71 110 0.0 0.0 0.00 0.00 0.00 28 1013.9
20260507031916 72 110 0.0 0.0 0.00 0.00 0.00 27 1013.8
20260507031416 72 110 0.0 0.0 0.00 0.00 0.00 27 1013.8
20260507030916 72 110 0.0 0.0 0.00 0.00 0.00 27 1013.7
20260507030416 72 110 0.0 1.0 0.00 0.00 0.00 26 1013.7
20260507025916 73 110 0.0 1.0 0.00 0.00 0.00 26 1013.6
20260507025416 74 110 1.0 2.0 0.00 0.00 0.00 24 1013.5
20260507024916 74 110 0.0 2.0 0.00 0.00 0.00 24 1013.5
20260507024416 75 110 0.0 0.0 0.00 0.00 0.00 24 1013.4
20260507023916 75 110 0.0 2.0 0.00 0.00 0.00 23 1013.4
20260507023418 76 110 0.0 2.0 0.00 0.00 0.00 22 1013.4
20260507022916 77 110 2.0 3.0 0.00 0.00 0.00 22 1013.3
20260507022418 77 110 3.0 4.0 0.00 0.00 0.00 21 1013.2
20260507021916 78 110 2.0 4.0 0.00 0.00 0.00 21 1013.2
20260507021416 78 110 4.0 5.0 0.00 0.00 0.00 21 1013.1
20260507020916 78 110 2.0 9.0 0.00 0.00 0.00 21 1013.1
20260507020417 78 110 1.0 3.0 0.00 0.00 0.00 21 1013.1
20260507015916 79 110 3.0 5.0 0.00 0.00 0.00 20 1013.1
20260507015416 79 110 2.0 8.0 0.00 0.00 0.00 20 1013.0
20260507014917 79 110 2.0 8.0 0.00 0.00 0.00 20 1013.0